User: anonymous   Login
Location: Theydon Bois
(51.6750°N, 0.1050°E)
Time: 12:03:51
(UTC+01:00)
Language:

BREEZE M DEB (TANK) - Orbit

View from above orbital plane
View from above orbital plane
View from above satellite
View from above satellite

Ground track
Ground track

The orbit data is extracted from the following two-line orbital elements,

1 33454U 08063B   18224.31186900 +.00000162 +00000-0 +80959-4 0  9995
2 33454 049.4926 348.3060 5411322 302.3018 016.4184 04.90581758170913
Epoch (UTC): 12 August 2018 07:29:05
Eccentricity: 0.5411322
inclination: 49.4926°
perigee height: 335 km
apogee height: 16169 km
right ascension of ascending node: 348.3060°
argument of perigee: 302.3018°
revolutions per day: 4.90581758
mean anomaly at epoch: 16.4184°
orbit number at epoch: 17091

The dashed part of the orbit path shows where the satellite is in the earth's shadow,  

DLR